{"data":{"norad_id":57073,"epoch":"2026-09-20T21:34:53.325120Z","epoch_age_seconds":86423,"freshness":"FRESH","line1":"1 57073U 23088AB  26263.89922830 -.00000195  00000+0  24241-5 0  9996","line2":"2 57073  43.0032  73.8109 0001318 255.7579 104.3126 15.27576224179372","mean_motion":15.27576224,"eccentricity":0.0001318,"inclination_deg":43.0032,"raan_deg":73.8109,"arg_perigee_deg":255.7579,"mean_anomaly_deg":104.3126,"bstar":2.4241e-6,"rev_number":17937,"period_min":94.266981730661,"perigee_km":482.15609694767,"apogee_km":483.96470858304,"semimajor_km":6861.1974027654,"source":"CELESTRAK","updated_at":"2026-09-21T09:00:33.553163Z"}}